Location: Winthrop
(48.4780°N, 120.1850°W)
Time: 02:55:50
(UTC-07:00)

Transit 2A - Pass Details

Date: 20 June 2024
Orbit: 591 x 960 km, 66.7° (Epoch: 23 July)

Event Time Altitude Azimuth Distance (km) Brightness Sun altitude
Rises 03:08:38 0° 310° (NW) 3,565 9.6 -12.7°
Reaches altitude 10° 03:12:24 10° 288° (WNW) 2,662 8.7 -12.4°
Maximum altitude 03:15:29 14° 258° (WSW) 2,383 8.1 -12.2°
Enters shadow 03:17:31 12° 237° (WSW) 2,520 8.1 -12.0°
